SQ5DCP-1 Weather Reports


time (UTC)temp
C
wind
direction
speed
KPH
gust
KPH
rain 1hr
cm
rain 24hr
cm
rain mn
cm
humidity
%
barometer
mb
20260906070519 13 288 14.5 35.4 0.00 0.03 0.00 73 1020.1
20260906070017 13 284 11.3 29.0 0.00 0.03 0.00 74 1020.0
20260906065535 13 279 11.3 24.1 0.00 0.03 0.00 74 1020.0
20260906065034 13 289 11.3 20.9 0.00 0.03 0.00 74 1019.9
20260906064531 13 299 11.3 24.1 0.00 0.03 0.00 74 1019.8
20260906064030 13 283 12.9 25.7 0.00 0.03 0.00 74 1019.8
20260906063528 13 290 14.5 29.0 0.00 0.03 0.00 74 1019.7
20260906063026 13 283 12.9 27.4 0.00 0.03 0.00 74 1019.6
20260906062524 13 282 12.9 24.1 0.00 0.03 0.00 74 1019.7
20260906062022 13 297 11.3 25.7 0.00 0.03 0.00 74 1019.7
20260906061520 13 276 16.1 27.4 0.00 0.03 0.00 74 1019.6
20260906061018 13 284 9.7 22.5 0.00 0.03 0.00 74 1019.6
20260906060516 13 280 14.5 33.8 0.00 0.03 0.00 74 1019.5
20260906060035 13 281 14.5 41.8 0.00 0.03 0.00 74 1019.4
20260906055533 13 277 12.9 33.8 0.00 0.03 0.00 75 1019.3
20260906055031 13 292 11.3 24.1 0.00 0.03 0.00 76 1019.3
20260906054529 13 294 11.3 33.8 0.00 0.03 0.00 76 1019.2
20260906054027 13 280 11.3 22.5 0.00 0.03 0.00 77 1019.2
20260906053525 13 275 12.9 29.0 0.00 0.03 0.00 77 1019.2
20260906053023 13 280 9.7 20.9 0.00 0.03 0.00 77 1019.2
20260906052522 13 287 11.3 29.0 0.00 0.03 0.00 78 1019.1
20260906052019 13 287 11.3 25.7 0.00 0.03 0.00 78 1019.1
20260906051518 13 292 12.9 25.7 0.00 0.03 0.00 78 1019.0
20260906051049 13 294 11.3 24.1 0.00 0.03 0.00 78 1019.1
20260906051015 13 294 11.3 24.1 0.00 0.03 0.00 78 1019.1
20260906050534 13 283 11.3 30.6 0.00 0.03 0.00 78 1018.9
20260906050032 13 279 9.7 22.5 0.00 0.03 0.00 78 1018.9
20260906045530 13 283 11.3 22.5 0.00 0.03 0.00 78 1018.9
20260906045028 13 281 11.3 25.7 0.00 0.03 0.00 78 1018.9
20260906044526 13 275 9.7 20.9 0.00 0.03 0.00 78 1018.8
20260906044024 13 279 12.9 22.5 0.00 0.03 0.00 78 1018.8
20260906043523 13 281 11.3 24.1 0.00 0.03 0.00 78 1018.8
20260906043415 13 281 12.9 33.8 0.00 0.03 0.00 78 1018.6
20260906043021 13 281 12.9 33.8 0.00 0.03 0.00 78 1018.6
20260906042518 13 284 12.9 30.6 0.00 0.03 0.00 79 1018.6
20260906042017 13 285 12.9 25.7 0.00 0.03 0.00 79 1018.5
20260906041535 13 274 12.9 37.0 0.00 0.03 0.00 79 1018.5
20260906041033 13 287 9.7 29.0 0.00 0.03 0.00 78 1018.4
20260906040531 13 291 12.9 27.4 0.00 0.03 0.00 79 1018.4
20260906040029 13 290 12.9 25.7 0.00 0.03 0.00 79 1018.2
20260906035527 13 289 11.3 22.5 0.00 0.03 0.00 79 1018.2
20260906035025 13 276 9.7 22.5 0.00 0.03 0.00 79 1018.2
20260906034523 13 270 11.3 20.9 0.00 0.03 0.00 79 1018.2
20260906034021 13 282 9.7 25.7 0.00 0.03 0.00 78 1018.2
20260906033519 13 277 11.3 20.9 0.00 0.03 0.00 78 1018.1
20260906033018 13 290 14.5 37.0 0.00 0.03 0.00 78 1018.0
20260906032516 13 293 8.0 17.7 0.00 0.03 0.00 79 1018.0
20260906032034 13 281 11.3 24.1 0.00 0.03 0.00 79 1018.0
20260906031532 13 286 11.3 25.7 0.00 0.03 0.00 79 1017.9
20260906031030 13 288 9.7 22.5 0.00 0.03 0.00 79 1017.9
20260906030528 13 280 9.7 27.4 0.00 0.03 0.00 79 1017.9
20260906030026 13 283 8.0 17.7 0.00 0.03 0.00 80 1017.8
20260906025524 13 280 11.3 17.7 0.00 0.03 0.00 80 1018.0
20260906025022 13 291 11.3 30.6 0.00 0.03 0.00 80 1017.8
20260906024520 13 287 11.3 29.0 0.00 0.03 0.00 80 1017.8
20260906024018 13 282 12.9 24.1 0.00 0.03 0.00 80 1017.7
20260906023517 13 287 9.7 24.1 0.00 0.05 0.00 80 1017.8
20260906023035 13 285 8.0 17.7 0.00 0.05 0.00 80 1017.8
20260906022533 13 278 9.7 24.1 0.00 0.05 0.00 80 1017.7
20260906022031 13 285 8.0 17.7 0.00 0.05 0.00 80 1017.7
20260906021529 13 288 9.7 20.9 0.00 0.05 0.00 80 1017.7
20260906021028 13 290 9.7 24.1 0.00 0.05 0.00 80 1017.7
20260906020526 13 270 11.3 29.0 0.00 0.05 0.00 80 1017.7
20260906020024 13 285 9.7 17.7 0.00 0.05 0.00 80 1017.7
20260906015522 13 288 9.7 20.9 0.00 0.05 0.00 80 1017.6
20260906015020 13 287 9.7 17.7 0.00 0.05 0.00 80 1017.7
20260906014519 13 282 9.7 25.7 0.00 0.05 0.00 80 1017.5
20260906014016 13 280 12.9 27.4 0.00 0.05 0.00 80 1017.6
20260906013534 13 290 11.3 24.1 0.00 0.05 0.00 80 1017.6
20260906013033 13 282 9.7 25.7 0.00 0.05 0.00 80 1017.5
20260906012531 13 285 14.5 27.4 0.00 0.05 0.00 80 1017.5
20260906012029 13 287 11.3 24.1 0.00 0.05 0.00 80 1017.6
20260906011527 13 271 12.9 24.1 0.00 0.05 0.00 80 1017.6
20260906011025 13 285 8.0 17.7 0.00 0.05 0.00 80 1017.5
20260906010524 13 271 11.3 20.9 0.00 0.05 0.00 80 1017.5
20260906010022 13 288 11.3 29.0 0.00 0.05 0.00 80 1017.5
20260906005520 13 273 11.3 22.5 0.00 0.05 0.00 80 1017.5
20260906005018 13 294 11.3 24.1 0.00 0.05 0.00 80 1017.5
20260906004516 13 281 11.3 24.1 0.00 0.08 0.00 80 1017.6
20260906004034 13 291 12.9 37.0 0.00 0.08 0.00 80 1017.4
20260906003532 13 288 9.7 16.1 0.00 0.08 0.00 81 1017.4
20260906003031 13 284 8.0 17.7 0.00 0.08 0.00 80 1017.4
20260906002529 13 289 9.7 20.9 0.00 0.08 0.00 80 1017.5
20260906002027 13 286 11.3 27.4 0.00 0.08 0.00 80 1017.3
20260906001525 13 291 9.7 17.7 0.00 0.08 0.00 80 1017.4
20260906001023 13 278 8.0 16.1 0.00 0.08 0.00 80 1017.3
20260906000521 13 298 9.7 22.5 0.00 0.10 0.00 80 1017.2
20260906000019 13 290 9.7 22.5 0.00 0.10 0.00 80 1017.3
20260905235518 13 296 11.3 25.7 0.00 0.13 0.00 79 1017.4
20260905235015 13 301 11.3 24.1 0.00 0.13 0.00 80 1017.3
20260905234534 13 281 9.7 20.9 0.00 0.13 0.00 80 1017.2
20260905234032 13 281 9.7 20.9 0.00 0.13 0.00 80 1017.2
20260905233530 13 299 9.7 22.5 0.00 0.13 0.00 80 1017.2
20260905233028 13 283 8.0 27.4 0.00 0.13 0.00 80 1017.3
20260905232526 13 283 11.3 22.5 0.00 0.13 0.00 80 1017.3
20260905232025 13 287 9.7 25.7 0.00 0.13 0.00 80 1017.2
20260905231523 13 285 11.3 24.1 0.00 0.13 0.00 79 1017.2
20260905231021 13 286 9.7 22.5 0.00 0.13 0.00 79 1017.1
20260905230519 13 275 9.7 24.1 0.00 0.13 0.00 79 1017.1
20260905230049 13 280 11.3 27.4 0.00 0.13 0.00 79 1017.1
20260905230017 13 280 11.3 27.4 0.00 0.13 0.00 79 1017.1
20260905225535 13 290 11.3 24.1 0.00 0.13 0.00 79 1017.0
20260905225034 13 281 11.3 20.9 0.00 0.13 0.00 79 1017.1
20260905224532 13 282 9.7 17.7 0.00 0.13 0.00 79 1017.2
20260905224030 13 281 9.7 17.7 0.00 0.13 0.00 79 1017.2
20260905223528 13 279 9.7 20.9 0.00 0.13 0.00 79 1017.1
20260905223026 13 278 11.3 25.7 0.00 0.13 0.00 79 1017.0
20260905222524 13 283 11.3 25.7 0.00 0.13 0.00 78 1017.2
20260905222022 13 290 9.7 24.1 0.00 0.13 0.00 78 1017.2
20260905221520 13 289 9.7 22.5 0.00 0.13 0.00 77 1017.1
20260905221019 13 282 8.0 24.1 0.00 0.13 0.00 77 1017.1
20260905220517 13 286 8.0 16.1 0.00 0.13 0.00 77 1017.0
20260905220035 13 285 8.0 20.9 0.00 0.13 0.13 77 1017.0
20260905215533 13 288 9.7 24.1 0.00 0.13 0.13 76 1017.0
20260905215032 13 274 11.3 29.0 0.00 0.13 0.13 76 1016.9
20260905214529 13 284 9.7 25.7 0.00 0.13 0.13 76 1016.9
20260905214027 13 286 9.7 20.9 0.00 0.13 0.13 76 1017.0
20260905213526 14 295 11.3 17.7 0.00 0.13 0.13 76 1016.8
20260905213024 14 287 9.7 22.5 0.00 0.13 0.13 76 1016.7
20260905212522 14 285 8.0 20.9 0.00 0.13 0.13 76 1016.6
20260905212020 14 278 9.7 22.5 0.00 0.13 0.13 76 1016.7
20260905211518 14 278 11.3 24.1 0.00 0.13 0.13 76 1016.7
20260905211016 14 282 12.9 24.1 0.00 0.18 0.13 76 1016.6
20260905210534 14 284 11.3 20.9 0.00 0.20 0.13 75 1016.6
20260905210032 14 282 12.9 24.1 0.00 0.20 0.13 75 1016.5
20260905205531 14 280 12.9 24.1 0.00 0.20 0.13 74 1016.6
20260905205029 14 284 12.9 25.7 0.00 0.20 0.13 74 1016.6
20260905204527 14 279 12.9 27.4 0.00 0.20 0.13 74 1016.6
20260905204025 14 282 16.1 41.8 0.00 0.20 0.13 74 1016.6
20260905203523 14 279 14.5 35.4 0.00 0.23 0.13 75 1016.6
20260905203021 15 291 11.3 20.9 0.00 0.23 0.13 74 1016.5
20260905202520 15 289 12.9 30.6 0.00 0.23 0.13 74 1016.5
20260905202018 15 277 11.3 22.5 0.00 0.23 0.13 74 1016.4
20260905201516 15 279 9.7 24.1 0.00 0.23 0.13 74 1016.4
20260905201034 15 288 12.9 25.7 0.00 0.23 0.13 74 1016.3
20260905200532 15 266 12.9 30.6 0.00 0.23 0.13 75 1016.4
20260905200030 15 291 6.4 14.5 0.00 0.23 0.13 76 1016.4
20260905195528 15 284 6.4 17.7 0.00 0.23 0.13 76 1016.2
20260905195026 15 283 4.8 12.9 0.00 0.23 0.13 76 1016.4
20260905194524 15 278 4.8 12.9 0.00 0.23 0.13 76 1016.3
20260905194022 15 284 6.4 17.7 0.00 0.23 0.13 76 1016.3
20260905193520 15 275 6.4 16.1 0.00 0.23 0.13 76 1016.3
20260905193019 15 283 4.8 9.7 0.03 0.23 0.13 75 1016.2
20260905192516 15 283 4.8 16.1 0.03 0.23 0.13 75 1016.2
20260905192035 15 285 8.0 17.7 0.03 0.23 0.13 75 1016.5
20260905191532 15 268 4.8 9.7 0.03 0.23 0.13 74 1016.4
20260905191043 15 286 4.8 11.3 0.03 0.23 0.13 73 1016.6
20260905191030 15 272 3.2 11.3 0.03 0.23 0.13 73 1016.4
20260905190528 15 286 4.8 11.3 0.03 0.23 0.13 73 1016.6
20260905190026 15 270 4.8 6.4 0.03 0.23 0.13 73 1016.6
20260905185524 15 299 4.8 11.3 0.03 0.23 0.13 74 1016.7
20260905185023 15 289 4.8 11.3 0.03 0.23 0.13 73 1016.4
20260905184521 15 278 1.6 6.4 0.03 0.23 0.13 72 1016.4
20260905184018 15 277 4.8 12.9 0.03 0.23 0.13 73 1016.5
20260905183517 15 281 6.4 20.9 0.03 0.23 0.13 73 1016.6
20260905183035 15 286 6.4 14.5 0.00 0.20 0.10 72 1016.7
20260905182533 16 288 9.7 22.5 0.00 0.20 0.10 72 1016.9
20260905182031 16 286 9.7 24.1 0.00 0.20 0.10 69 1017.0
20260905181529 16 312 9.7 20.9 0.00 0.20 0.10 67 1016.9
20260905181028 16 303 8.0 16.1 0.00 0.20 0.10 66 1016.8
20260905180526 16 300 3.2 6.4 0.00 0.20 0.10 64 1016.6
20260905180024 16 324 1.6 6.4 0.00 0.20 0.10 63 1016.2
20260905175522 17 0.0 0.0 0.00 0.20 0.10 63 1016.1
20260905175020 17 0.0 0.0 0.00 0.20 0.10 63 1016.1
20260905174519 17 270 0.0 4.8 0.00 0.20 0.10 63 1016.1
20260905174016 17 0.0 0.0 0.00 0.20 0.10 62 1016.0
20260905173534 17 0.0 0.0 0.00 0.20 0.10 62 1015.9
20260905173033 17 284 1.6 4.8 0.00 0.20 0.10 62 1015.9
20260905172531 17 0.0 0.0 0.00 0.20 0.10 62 1015.8
20260905172029 17 285 1.6 4.8 0.00 0.20 0.10 62 1015.7
20260905171527 17 290 1.6 4.8 0.00 0.20 0.10 62 1015.8
20260905171025 17 286 4.8 11.3 0.00 0.20 0.10 61 1015.9
20260905170523 17 289 1.6 6.4 0.00 0.20 0.10 61 1015.7
20260905170022 17 293 4.8 12.9 0.00 0.20 0.10 61 1015.8
20260905165519 17 286 4.8 12.9 0.00 0.20 0.10 61 1015.8
20260905165018 17 288 4.8 12.9 0.00 0.20 0.10 61 1015.7
20260905164515 17 299 4.8 12.9 0.00 0.20 0.10 61 1015.9
20260905164034 17 348 8.0 17.7 0.00 0.20 0.10 60 1015.8
20260905163532 17 315 6.4 16.1 0.00 0.20 0.10 59 1015.7
20260905163029 18 334 8.0 20.9 0.00 0.20 0.10 59 1015.8
20260905162527 18 312 8.0 17.7 0.00 0.20 0.10 58 1015.7
20260905162025 18 334 11.3 27.4 0.00 0.20 0.10 57 1015.7
20260905161523 18 324 11.3 30.6 0.00 0.20 0.10 56 1015.7
20260905161022 19 335 16.1 40.2 0.00 0.20 0.10 54 1015.8
20260905160520 20 291 9.7 20.9 0.00 0.20 0.10 53 1015.3
20260905160018 20 285 12.9 25.7 0.00 0.20 0.10 53 1015.2
20260905155516 20 286 11.3 22.5 0.00 0.20 0.10 52 1015.1
20260905155034 20 283 11.3 20.9 0.00 0.20 0.10 52 1015.1
20260905154532 19 281 12.9 29.0 0.00 0.20 0.10 52 1015.0
20260905154030 19 277 11.3 25.7 0.00 0.20 0.10 52 1015.0
20260905153528 19 282 9.7 17.7 0.00 0.20 0.10 52 1015.0
20260905153026 20 292 9.7 16.1 0.00 0.20 0.10 51 1014.9
20260905152524 20 285 11.3 20.9 0.00 0.20 0.10 50 1014.9
20260905152022 20 291 11.3 27.4 0.00 0.20 0.10 50 1014.9
20260905151521 20 284 8.0 17.7 0.00 0.20 0.10 50 1014.8
20260905151019 20 290 9.7 24.1 0.00 0.20 0.10 50 1014.8
20260905150517 20 282 11.3 20.9 0.00 0.20 0.10 49 1015.0
20260905150035 20 287 11.3 20.9 0.00 0.20 0.10 48 1014.8
20260905145533 20 278 16.1 29.0 0.00 0.20 0.10 48 1014.8
20260905145031 20 287 12.9 27.4 0.00 0.20 0.10 48 1014.8
20260905144529 20 289 12.9 27.4 0.00 0.20 0.10 48 1014.9
20260905144027 20 296 12.9 22.5 0.00 0.20 0.10 48 1014.8
20260905143525 20 290 16.1 33.8 0.00 0.20 0.10 47 1014.9
20260905143024 20 283 12.9 24.1 0.00 0.20 0.10 48 1015.0
20260905142522 20 291 14.5 35.4 0.00 0.20 0.10 47 1014.9
20260905142020 20 283 12.9 22.5 0.00 0.20 0.10 47 1015.0
20260905141518 20 281 14.5 38.6 0.00 0.20 0.10 47 1014.8
20260905141049 20 285 14.5 30.6 0.00 0.20 0.10 47 1014.8
20260905141016 20 285 14.5 30.6 0.00 0.20 0.10 47 1014.8
20260905140534 20 295 12.9 27.4 0.00 0.20 0.10 48 1014.8
20260905140032 20 292 12.9 33.8 0.00 0.20 0.10 48 1014.7
20260905135531 20 277 14.5 30.6 0.00 0.20 0.10 48 1014.7
20260905135028 20 284 17.7 33.8 0.00 0.20 0.10 47 1014.7
20260905134527 20 300 14.5 30.6 0.00 0.20 0.10 47 1014.7
20260905134025 20 294 11.3 27.4 0.00 0.20 0.10 47 1014.7
20260905133523 20 296 12.9 30.6 0.00 0.20 0.10 49 1014.6
20260905133021 20 286 12.9 38.6 0.00 0.20 0.10 48 1014.6
20260905132519 21 292 17.7 35.4 0.00 0.20 0.10 48 1014.5
20260905132017 20 300 14.5 35.4 0.00 0.20 0.10 49 1014.5
20260905131536 20 290 12.9 33.8 0.00 0.20 0.10 49 1014.5
20260905131033 20 287 16.1 33.8 0.00 0.20 0.10 48 1014.5
20260905130532 20 293 17.7 37.0 0.00 0.20 0.10 48 1014.6
20260905130030 20 282 19.3 38.6 0.00 0.20 0.10 51 1014.6
20260905125528 20 280 12.9 27.4 0.00 0.20 0.10 53 1014.5
20260905125027 20 276 12.9 27.4 0.00 0.20 0.10 52 1014.6
20260905124525 20 291 14.5 27.4 0.00 0.20 0.10 53 1014.6
20260905124023 20 283 11.3 25.7 0.00 0.20 0.10 53 1014.6
20260905123521 20 281 14.5 35.4 0.00 0.20 0.10 52 1014.5
20260905123019 21 287 14.5 27.4 0.00 0.20 0.10 52 1014.6
20260905122517 20 286 16.1 35.4 0.00 0.20 0.10 52 1014.6
20260905122035 20 303 17.7 35.4 0.00 0.20 0.10 51 1014.5
20260905121533 20 287 20.9 40.2 0.00 0.20 0.10 52 1014.5
20260905121031 20 284 16.1 35.4 0.00 0.20 0.10 52 1014.5
20260905120529 20 292 16.1 43.5 0.00 0.20 0.10 54 1014.6
20260905120028 19 282 14.5 33.8 0.00 0.20 0.10 56 1014.5
20260905115526 19 283 16.1 29.0 0.00 0.20 0.10 57 1014.6
20260905115023 20 281 16.1 35.4 0.00 0.20 0.10 56 1014.4
20260905114522 20 282 14.5 33.8 0.00 0.20 0.10 56 1014.4
20260905114020 20 287 9.7 22.5 0.00 0.20 0.10 58 1014.4
20260905113518 20 289 14.5 30.6 0.00 0.20 0.10 57 1014.4
20260905113049 20 285 14.5 37.0 0.00 0.20 0.10 55 1014.4
20260905113016 20 285 14.5 37.0 0.00 0.20 0.10 55 1014.4
20260905112534 20 297 16.1 37.0 0.00 0.20 0.10 55 1014.2
20260905112032 20 287 14.5 27.4 0.00 0.20 0.10 55 1014.4
20260905111530 20 268 14.5 27.4 0.00 0.20 0.10 55 1014.2
20260905111028 20 299 16.1 33.8 0.00 0.20 0.10 55 1014.2
20260905110526 20 299 19.3 40.2 0.00 0.20 0.10 57 1014.1
20260905110025 20 278 16.1 35.4 0.00 0.20 0.10 57 1014.1
20260905105522 20 284 12.9 29.0 0.00 0.20 0.10 57 1014.1
20260905105020 20 292 14.5 25.7 0.00 0.20 0.10 59 1014.1
20260905104518 19 282 12.9 30.6 0.00 0.20 0.10 59 1014.2
20260905104049 19 286 17.7 40.2 0.00 0.20 0.10 58 1014.2
20260905104016 19 286 17.7 40.2 0.00 0.20 0.10 58 1014.2
20260905103535 19 291 17.7 41.8 0.00 0.20 0.10 59 1014.1
20260905103033 19 285 14.5 27.4 0.00 0.20 0.10 60 1014.1
20260905102531 19 283 16.1 29.0 0.00 0.20 0.10 59 1013.9
20260905102029 20 291 16.1 37.0 0.00 0.20 0.10 58 1013.9
20260905101527 20 285 17.7 46.7 0.00 0.20 0.10 58 1013.8
20260905101025 20 273 17.7 43.5 0.00 0.20 0.10 60 1013.8
20260905100523 19 292 12.9 30.6 0.00 0.20 0.10 61 1013.8
20260905100021 19 274 14.5 29.0 0.00 0.20 0.10 60 1013.9
20260905095520 19 290 11.3 30.6 0.00 0.20 0.10 61 1013.8
20260905095017 19 285 16.1 41.8 0.00 0.20 0.10 59 1013.9
20260905094535 19 284 16.1 33.8 0.00 0.20 0.10 61 1013.8
20260905094033 19 280 11.3 22.5 0.00 0.20 0.10 60 1013.7
20260905093531 19 281 19.3 37.0 0.00 0.20 0.10 60 1013.8
20260905093029 19 279 14.5 35.4 0.00 0.20 0.10 60 1013.8
20260905092527 19 276 17.7 40.2 0.00 0.20 0.10 60 1013.8
20260905092025 18 276 16.1 33.8 0.00 0.20 0.10 63 1013.7
20260905091522 18 284 14.5 35.4 0.00 0.20 0.10 64 1013.7
20260905091021 18 278 17.7 43.5 0.00 0.20 0.10 62 1013.7
20260905090519 18 273 16.1 33.8 0.00 0.20 0.10 64 1013.6
20260905090049 18 278 16.1 33.8 0.00 0.20 0.10 65 1013.6
20260905090017 18 278 16.1 33.8 0.00 0.20 0.10 65 1013.6
20260905085536 18 277 16.1 33.8 0.00 0.20 0.10 65 1013.5
20260905085033 18 283 12.9 27.4 0.00 0.20 0.10 66 1013.6
20260905084531 18 271 14.5 33.8 0.00 0.20 0.10 66 1013.5
20260905084029 18 295 12.9 27.4 0.00 0.20 0.10 67 1013.6
20260905083527 17 281 16.1 35.4 0.00 0.20 0.10 68 1013.6
20260905083025 17 291 16.1 41.8 0.00 0.20 0.10 70 1013.7
20260905082523 17 282 12.9 30.6 0.00 0.20 0.10 71 1013.6
20260905082020 17 288 12.9 30.6 0.00 0.20 0.10 71 1013.6
20260905081518 17 282 14.5 35.4 0.00 0.20 0.10 70 1013.6
20260905081050 17 282 17.7 37.0 0.00 0.20 0.10 70 1013.5
20260905081016 17 282 17.7 37.0 0.00 0.20 0.10 70 1013.5
20260905080535 17 292 11.3 25.7 0.00 0.20 0.10 70 1013.6
20260905080033 17 293 16.1 30.6 0.00 0.20 0.10 70 1013.5
20260905075530 17 273 14.5 30.6 0.00 0.20 0.10 71 1013.5
20260905075028 17 279 11.3 27.4 0.00 0.20 0.10 72 1013.4
20260905074526 17 287 11.3 25.7 0.00 0.20 0.10 73 1013.4
20260905074024 17 294 9.7 20.9 0.00 0.20 0.10 73 1013.4
20260905073522 17 305 12.9 25.7 0.00 0.20 0.10 73 1013.3
20260905073020 16 288 11.3 24.1 0.00 0.20 0.10 75 1013.3
20260905072518 16 295 9.7 25.7 0.00 0.20 0.10 75 1013.1
20260905072016 16 278 11.3 20.9 0.00 0.20 0.10 75 1013.1
20260905071534 16 293 12.9 27.4 0.00 0.20 0.10 75 1013.0
20260905071033 16 285 11.3 25.7 0.00 0.20 0.10 75 1013.0